SCP
0 0 0 0 0 0 0 0 0 0 0 0 0 0 0 0 0 -0 0 0 0 0 0 0 0 0 0 0 0 0 0 0 0 0 0 0 0 0 0 -0 0 0 2 1 1
0 0 0 0 0 0 0 0 0 0 0 0 0 0 0 0 0 0 0 0 0 0 0 0 0 0 0 0 0 0 0 0 0 0 0 0 0 0 0 0 0 -0 1 1 2
0 0 0 0 0 0 0 0 0 0 0 0 0 0 0 0 -0 -0 0 0 0 0 0 0 0 0 0 0 0 0 0 0 0 0 0 0 0 0 0 0 0 -0 -1 1 1
0 0 0 0 0 0 0 0 0 0 0 0 0 0 0 0 0 0 0 0 0 0 0 0 0 0 0 0 0 0 0 0 0 0 0 0 0 0 0 0 0 0 -1 2 2
0 0 0 0 0 0 0 0 0 0 0 0 0 0 0 0 0 0 0 0 0 0 0 0 0 0 0 0 0 0 0 0 0 0 0 0 0 0 0 0 0 -0 -0 1 1
0 0 0 0 0 0 0 0 0 0 0 0 0 0 0 0 0 0 0 0 0 0 0 0 0 0 0 0 0 0 0 0 0 0 0 0 0 0 0 0 0 0 0 0 0
0 0 0 0 0 0 0 0 0 0 0 0 0 0 0 0 0 0 0 0 0 0 0 0 0 0 0 0 0 0 0 0 0 0 0 0 0 0 -0 -0 0 0 0 0 0
0 0 0 0 0 0 0 0 0 0 0 0 0 0 0 0 0 0 -0 -0 -0 0 0 0 0 0 0 0 0 0 0 0 0 0 0 0 0 0 0 -0 0 0 0 0 0
0 0 0 0 0 0 0 0 0 0 0 0 0 0 0 0 0 0 0 0 0 0 0 0 0 0 0 0 0 0 0 0 0 0 0 0 0 0 0 0 0 0 0 0 0
0 0 0 0 0 0 0 0 0 0 0 0 0 0 0 0 0 0 0 0 0 0 0 0 0 0 0 0 0 0 0 0 0 0 0 0 0 0 0 0 0 0 0 0 0
0 0 0 0 0 0 0 0 0 0 0 0 0 0 0 0 0 0 0 0 0 0 0 0 0 0 0 0 0 0 0 0 0 0 0 0 0 0 0 0 0 0 0 0 0
0 0 0 0 0 0 0 0 0 0 0 0 0 0 0 0 0 0 0 0 0 0 0 0 0 0 0 0 0 0 0 0 0 -0 0 -0 -0 0 0 0 0 0 0 0 0
0 0 0 0 0 0 0 0 0 0 0 0 0 0 0 0 0 0 0 0 0 0 0 0 0 0 0 0 0 0 0 0 0 0 -0 0 0 -0 -0 0 0 0 0 0 0
0 0 0 0 0 0 0 0 0 0 0 0 0 0 0 0 0 0 0 0 0 0 0 0 0 0 0 0 0 0 0 0 -0 0 0 0 0 0 0 0 0 0 0 0 0
0 0 0 0 0 0 0 0 0 0 0 0 0 0 0 0 0 -0 0 0 0 0 0 0 0 0 0 0 0 0 0 0 0 0 0 0 0 0 0 0 0 0 0 0 0
0 0 0 0 0 0 0 0 0 0 0 0 0 -0 0 0 0 0 0 0 0 0 0 0 0 0 0 -0 0 -0 0 0 0 0 0 0 0 0 0 0 0 0 0 0 0
0 0 0 0 0 0 0 0 0 0 0 -0 0 0 0 0 0 0 0 0 0 0 0 0 0 0 0 0 0 -0 0 0 0 0 0 0 0 0 0 0 0 0 0 0 0
0 0 0 0 -0 0 0 0 0 -0 -0 -0 0 0 0 0 0 0 0 0 0 0 0 0 0 0 0 0 0 -0 0 0 0 0 0 0 0 0 0 0 0 0 0 0 0
0 0 0 0 0 0 0 0 0 0 -0 0 0 -0 -0 0 0 0 0 0 -0 0 0 0 0 0 0 0 0 0 0 0 0 0 0 0 0 0 0 0 0 0 0 0 0
0 0 0 0 0 0 0 0 0 0 -0 -0 -0 0 -0 0 0 0 0 -0 -0 0 0 0 0 0 0 0 0 0 0 0 0 0 0 0 0 0 0 0 0 0 0 0 0
0 0 0 0 0 0 0 -0 -0 -0 0 -0 -0 -0 0 0 0 -0 0 0 -0 -0 0 0 0 0 0 0 0 0 0 0 0 0 0 0 0 0 0 0 0 0 0 0 0
0 0 0 0 0 0 -0 -0 -0 0 0 0 0 -0 0 0 0 0 -0 -0 -0 0 0 0 0 0 0 0 0 0 0 0 0 0 0 0 0 0 0 0 0 0 0 0 0
0 0 0 -0 0 0 -0 -0 0 -0 -0 0 0 -0 0 -0 -0 -0 -0 -0 0 0 0 0 0 0 0 0 0 0 0 0 0 0 0 0 0 0 0 0 0 0 0 0 0
0 0 0 0 0 -0 -0 -0 0 -0 -0 0 0 0 0 0 -0 0 -0 0 -0 -0 0 0 0 0 -0 0 0 0 0 0 0 0 0 0 0 0 0 0 0 0 0 0 0
0 0 0 -0 -0 -0 -0 0 0 0 0 0 0 -0 -0 0 0 0 0 0 0 0 0 0 0 0 0 0 0 0 0 0 0 0 0 0 0 -0 -0 0 0 0 0 0 0
0 0 0 0 0 0 -0 0 0 -0 0 0 0 -0 -0 -0 0 0 0 0 0 0 0 0 0 0 0 0 0 0 0 0 0 0 0 0 0 0 0 0 0 0 0 -0 -0
0 0 0 0 0 0 0 0 0 -0 0 0 -0 -0 -0 0 -0 0 0 0 0 0 0 0 0 0 0 0 0 0 0 0 0 0 0 0 0 0 0 0 0 0 -0 0 -0
Wind_Speed_500mb
44 43 43 43 43 44 44 45 45 45 45 46 48 49 50 51 57 60 73 55 50 37 46 28 26 29 28 23 33 26 7 13 17 15 10 28 10 51 31 36 57 18 27 72 68
48 49 50 49 50 50 51 51 50 49 49 48 49 50 51 54 58 72 60 42 43 48 45 53 42 30 19 23 20 15 17 17 9 19 12 30 34 39 29 41 51 26 32 81 76
48 50 51 52 55 54 52 51 51 52 51 50 50 50 48 44 53 19 3 8 12 45 57 34 42 30 23 28 25 11 27 22 12 37 47 37 53 37 22 30 44 10 14 62 77
51 52 53 54 56 56 55 54 51 50 51 50 50 46 33 29 15 8 8 8 10 31 61 46 30 16 14 17 44 13 11 30 24 40 39 26 53 37 20 36 34 42 15 47 72
54 55 56 58 58 58 57 57 54 54 55 54 51 36 29 18 67 46 40 28 17 35 69 63 45 31 15 12 23 12 18 42 47 60 62 60 46 49 43 53 40 29 11 40 71
59 60 60 62 61 59 58 58 56 51 49 50 49 33 32 34 56 21 16 42 33 27 60 64 36 56 16 21 15 14 50 48 52 57 56 41 44 30 63 33 20 13 19 47 56
60 62 63 63 62 63 60 61 62 59 53 52 47 34 49 80 65 51 29 28 36 42 49 65 65 39 32 8 43 49 19 22 26 26 25 46 35 43 45 24 27 12 24 44 59
64 65 66 67 68 69 69 65 65 64 59 64 40 32 46 63 72 83 71 78 55 58 58 44 58 57 25 18 13 10 9 24 20 16 23 26 42 33 29 9 22 23 25 43 64
65 67 68 70 69 69 71 71 68 65 71 51 27 31 36 39 48 32 38 74 58 66 63 53 43 39 30 16 13 7 15 10 15 18 15 18 21 14 39 34 29 29 27 31 48
66 67 69 70 69 72 76 75 67 64 37 16 23 17 42 58 32 21 17 30 46 48 53 51 31 25 27 12 28 17 10 9 13 14 14 23 17 17 31 42 42 40 27 26 50
71 72 75 75 72 69 79 82 30 17 16 32 29 36 31 34 29 31 36 22 45 34 32 44 23 34 41 33 15 18 11 13 10 27 10 17 20 19 31 32 32 46 45 31 27
73 76 77 80 78 74 65 31 43 28 35 50 74 100 110 96 88 75 39 29 30 35 36 21 49 36 20 30 26 19 17 17 21 14 13 21 29 20 21 19 46 56 56 48 37
79 82 84 90 88 55 27 51 57 47 20 44 76 72 79 69 97 87 63 58 36 37 40 54 15 38 36 30 33 29 28 22 20 9 12 20 14 10 14 19 39 61 69 64 55
82 86 88 94 62 35 74 18 39 42 11 23 18 26 37 34 17 84 85 48 26 49 37 37 48 50 37 43 33 36 27 34 30 9 10 10 10 7 11 13 3 24 49 69 70
85 90 91 87 77 52 58 44 25 2 13 17 12 4 23 35 14 11 61 56 38 24 32 36 44 46 45 43 41 30 30 35 32 12 8 2 8 13 7 9 6 5 17 32 54
88 92 93 75 52 48 35 33 16 4 18 15 13 30 20 30 14 34 31 41 32 30 35 33 32 42 47 35 41 38 25 24 24 8 12 10 12 9 6 12 7 6 16 27 31
89 91 75 34 42 40 28 25 5 12 9 29 15 32 35 34 7 6 3 33 24 24 36 31 43 31 24 38 34 39 14 7 6 11 10 13 4 13 12 9 9 11 17 29 29
94 89 24 32 42 59 21 6 17 16 36 34 38 41 11 18 12 6 7 12 25 10 11 26 24 55 35 35 32 26 26 11 11 12 6 5 6 9 11 24 34 36 48 46 43
93 78 17 56 64 41 8 8 7 10 16 32 45 15 13 19 24 13 18 16 18 26 14 22 21 14 42 39 31 30 22 24 12 5 10 9 8 10 21 29 30 40 59 52 54
85 57 27 68 48 11 5 3 7 6 32 28 20 18 12 23 12 4 7 9 19 31 25 8 15 20 33 27 37 35 20 14 5 14 9 7 8 6 10 14 19 18 37 56 57
60 26 37 70 39 19 7 7 14 28 28 18 14 15 15 12 8 5 10 4 9 33 29 2 2 6 6 6 22 6 12 8 13 10 11 9 6 2 5 20 17 11 30 53 60
30 11 36 60 15 9 13 27 28 18 42 26 20 26 26 8 7 9 14 11 9 23 40 15 4 2 7 12 7 9 15 14 13 5 7 9 5 1 12 4 25 23 43 58 59
39 15 44 34 15 15 18 28 26 29 25 10 12 11 24 11 8 16 15 13 27 9 31 17 7 6 6 10 1 8 6 15 16 8 11 10 6 9 12 7 4 24 23 52 53
18 10 18 14 48 24 31 19 26 48 14 8 10 11 7 4 14 4 6 6 18 19 15 10 3 4 11 3 4 9 10 18 15 10 13 9 19 20 25 28 10 11 16 46 61
16 7 11 14 23 31 38 13 34 21 13 21 11 33 21 5 7 4 3 4 10 23 8 7 9 6 8 18 6 11 10 17 12 16 12 23 27 30 23 17 15 31 55 50 52
16 11 16 23 36 34 20 17 36 39 9 17 23 34 19 11 9 6 9 5 3 10 7 5 5 10 5 8 12 19 12 18 20 16 13 37 21 14 28 39 47 52 41 50 50
35 33 19 20 15 21 18 28 35 43 20 24 29 17 11 12 28 27 16 20 1 3 10 13 6 8 11 9 6 9 6 17 18 8 38 24 21 34 25 26 41 35 44 48 54
Wind_Direction_500mb
334 331 329 326 323 320 317 315 314 311 309 308 308 306 303 301 297 286 272 277 271 253 238 230 226 206 208 234 209 207 201 221 219 204 249 291 292 278 299 306 314 297 153 165 144
335 333 330 329 328 326 324 321 318 314 310 308 307 307 308 308 305 289 297 280 252 236 234 222 215 193 189 212 216 197 215 225 204 213 266 271 271 288 326 315 307 33 135 154 157
338 335 332 330 328 327 324 321 318 315 312 308 306 306 307 317 316 295 122 348 273 216 216 216 214 200 218 222 194 228 239 228 266 238 259 265 272 286 277 279 282 336 154 159 165
334 332 331 329 327 325 322 319 315 312 309 306 302 302 311 310 285 184 191 292 318 209 200 195 203 195 198 207 226 237 254 245 264 267 266 248 265 266 249 270 303 327 274 200 176
333 332 330 328 328 325 323 321 320 316 312 308 302 301 301 261 257 267 263 256 278 205 200 196 202 199 185 208 236 236 241 254 257 258 253 262 263 268 262 278 292 309 241 203 183
333 331 330 329 327 324 320 316 312 308 305 303 298 289 269 252 287 301 244 235 245 229 206 205 213 207 204 221 187 235 235 246 252 256 254 252 263 266 264 259 283 300 198 184 190
332 330 329 326 323 321 318 313 308 304 302 295 289 275 256 245 271 270 262 242 228 236 219 214 215 189 219 295 240 243 257 261 247 249 245 256 263 247 265 261 255 202 183 185 184
331 329 327 325 324 321 317 311 305 304 299 289 279 262 255 277 286 268 251 241 225 217 232 244 221 222 239 248 302 205 187 248 265 224 253 201 247 252 260 248 257 243 193 201 191
333 331 329 326 325 322 317 311 307 304 290 274 254 238 271 278 262 291 262 237 232 227 227 233 216 213 235 221 270 221 240 221 275 198 226 183 252 254 258 271 268 274 260 191 206
333 330 327 325 324 322 319 314 313 295 275 202 226 238 259 245 244 316 306 240 207 210 212 220 222 221 228 177 217 213 196 215 205 273 200 253 255 258 243 246 251 253 244 234 183
334 331 329 326 323 321 320 320 321 296 191 214 216 220 262 279 237 283 285 213 188 190 200 202 206 216 219 222 235 225 220 233 232 242 197 253 251 240 241 236 243 245 247 232 231
335 333 332 330 322 321 312 289 310 321 295 266 256 255 257 255 266 258 229 173 189 199 197 210 223 209 223 216 218 218 232 245 265 273 158 253 251 228 222 228 228 234 244 247 229
335 334 336 334 328 320 306 297 315 337 279 283 257 251 253 228 241 246 235 216 202 198 205 206 223 203 211 213 214 225 222 232 239 285 276 251 252 228 245 228 238 239 237 238 240
334 334 335 334 328 306 310 323 319 319 274 282 254 265 218 198 253 242 227 213 215 202 206 222 220 189 206 217 207 227 215 227 244 233 236 158 246 272 228 236 184 248 244 239 238
334 333 336 330 311 300 322 326 343 83 266 270 245 186 167 162 288 6 208 204 213 178 199 205 193 212 208 211 209 230 216 223 234 210 205 208 89 267 44 332 174 161 148 223 239
334 334 336 334 329 356 0 352 355 179 242 272 332 41 352 241 280 8 177 200 214 211 208 220 195 198 224 220 219 226 221 231 242 179 230 229 138 274 249 207 175 275 153 166 191
334 337 336 346 338 340 343 335 250 221 267 256 272 357 334 329 305 84 226 189 197 201 212 208 222 232 202 219 225 220 188 250 240 212 207 196 65 230 323 310 203 147 75 91 103
336 338 17 360 3 353 276 196 230 245 237 293 327 330 322 358 38 100 252 175 274 250 187 204 214 215 220 214 200 215 192 165 169 182 160 138 191 316 9 29 49 69 89 99 96
340 344 7 2 339 315 289 224 239 273 344 328 325 331 331 349 343 171 206 206 188 230 192 210 229 204 212 230 204 216 198 199 129 49 126 147 95 51 25 30 46 60 72 82 96
346 350 10 352 342 358 249 263 288 285 290 299 291 280 283 314 307 238 288 163 186 212 194 287 219 236 241 217 227 214 168 162 8 133 161 145 121 123 13 47 37 46 84 94 97
355 339 2 356 349 360 344 294 289 303 337 321 280 262 268 295 290 217 248 167 233 201 188 123 30 284 87 159 200 147 166 97 109 121 157 139 113 345 237 131 98 68 99 104 104
353 324 347 353 27 327 327 326 301 306 316 289 246 249 247 186 269 254 237 250 182 198 182 182 113 212 244 269 203 217 176 143 134 177 96 116 175 289 200 142 122 108 114 113 111
328 286 347 3 2 340 314 313 308 324 319 315 329 328 307 168 232 214 271 210 153 116 154 154 169 107 6 341 12 198 168 123 114 107 174 122 191 149 139 128 157 96 129 128 122
333 327 328 350 350 333 326 324 333 327 325 287 260 290 297 253 230 230 240 148 159 144 136 164 118 185 184 95 186 170 124 143 122 115 148 154 155 179 173 163 169 85 83 114 117
1 324 318 321 332 327 325 308 332 346 325 12 330 350 329 325 352 39 91 101 167 120 68 101 152 218 48 19 9 352 131 143 128 153 137 164 158 174 168 139 133 117 118 107 103
340 324 307 305 313 325 325 338 335 343 299 349 344 335 8 36 342 327 13 269 99 133 115 91 274 137 122 26 31 63 52 132 116 106 82 115 106 120 123 113 98 101 108 99 97
338 323 292 307 329 334 336 328 330 336 313 336 337 333 328 348 313 294 288 285 358 121 151 139 228 117 127 148 79 96 322 97 86 45 143 138 139 133 128 123 113 98 92 92 102
Wind_Speed_850mb
44 43 43 43 43 44 44 45 45 45 45 46 48 49 50 51 57 60 73 55 50 37 46 28 26 29 28 23 33 26 7 13 17 15 10 28 10 51 31 36 57 18 27 72 68
48 49 50 49 50 50 51 51 50 49 49 48 49 50 51 54 58 72 60 42 43 48 45 53 42 30 19 23 20 15 17 17 9 19 12 30 34 39 29 41 51 26 32 81 76
48 50 51 52 55 54 52 51 51 52 51 50 50 50 48 44 53 19 3 8 12 45 57 34 42 30 23 28 25 11 27 22 12 37 47 37 53 37 22 30 44 10 14 62 77
51 52 53 54 56 56 55 54 51 50 51 50 50 46 33 29 15 8 8 8 10 31 61 46 30 16 14 17 44 13 11 30 24 40 39 26 53 37 20 36 34 42 15 47 72
54 55 56 58 58 58 57 57 54 54 55 54 51 36 29 18 67 46 40 28 17 35 69 63 45 31 15 12 23 12 18 42 47 60 62 60 46 49 43 53 40 29 11 40 71
59 60 60 62 61 59 58 58 56 51 49 50 49 33 32 34 56 21 16 42 33 27 60 64 36 56 16 21 15 14 50 48 52 57 56 41 44 30 63 33 20 13 19 47 56
60 62 63 63 62 63 60 61 62 59 53 52 47 34 49 80 65 51 29 28 36 42 49 65 65 39 32 8 43 49 19 22 26 26 25 46 35 43 45 24 27 12 24 44 59
64 65 66 67 68 69 69 65 65 64 59 64 40 32 46 63 72 83 71 78 55 58 58 44 58 57 25 18 13 10 9 24 20 16 23 26 42 33 29 9 22 23 25 43 64
65 67 68 70 69 69 71 71 68 65 71 51 27 31 36 39 48 32 38 74 58 66 63 53 43 39 30 16 13 7 15 10 15 18 15 18 21 14 39 34 29 29 27 31 48
66 67 69 70 69 72 76 75 67 64 37 16 23 17 42 58 32 21 17 30 46 48 53 51 31 25 27 12 28 17 10 9 13 14 14 23 17 17 31 42 42 40 27 26 50
71 72 75 75 72 69 79 82 30 17 16 32 29 36 31 34 29 31 36 22 45 34 32 44 23 34 41 33 15 18 11 13 10 27 10 17 20 19 31 32 32 46 45 31 27
73 76 77 80 78 74 65 31 43 28 35 50 74 100 110 96 88 75 39 29 30 35 36 21 49 36 20 30 26 19 17 17 21 14 13 21 29 20 21 19 46 56 56 48 37
79 82 84 90 88 55 27 51 57 47 20 44 76 72 79 69 97 87 63 58 36 37 40 54 15 38 36 30 33 29 28 22 20 9 12 20 14 10 14 19 39 61 69 64 55
82 86 88 94 62 35 74 18 39 42 11 23 18 26 37 34 17 84 85 48 26 49 37 37 48 50 37 43 33 36 27 34 30 9 10 10 10 7 11 13 3 24 49 69 70
85 90 91 87 77 52 58 44 25 2 13 17 12 4 23 35 14 11 61 56 38 24 32 36 44 46 45 43 41 30 30 35 32 12 8 2 8 13 7 9 6 5 17 32 54
88 92 93 75 52 48 35 33 16 4 18 15 13 30 20 30 14 34 31 41 32 30 35 33 32 42 47 35 41 38 25 24 24 8 12 10 12 9 6 12 7 6 16 27 31
89 91 75 34 42 40 28 25 5 12 9 29 15 32 35 34 7 6 3 33 24 24 36 31 43 31 24 38 34 39 14 7 6 11 10 13 4 13 12 9 9 11 17 29 29
94 89 24 32 42 59 21 6 17 16 36 34 38 41 11 18 12 6 7 12 25 10 11 26 24 55 35 35 32 26 26 11 11 12 6 5 6 9 11 24 34 36 48 46 43
93 78 17 56 64 41 8 8 7 10 16 32 45 15 13 19 24 13 18 16 18 26 14 22 21 14 42 39 31 30 22 24 12 5 10 9 8 10 21 29 30 40 59 52 54
85 57 27 68 48 11 5 3 7 6 32 28 20 18 12 23 12 4 7 9 19 31 25 8 15 20 33 27 37 35 20 14 5 14 9 7 8 6 10 14 19 18 37 56 57
60 26 37 70 39 19 7 7 14 28 28 18 14 15 15 12 8 5 10 4 9 33 29 2 2 6 6 6 22 6 12 8 13 10 11 9 6 2 5 20 17 11 30 53 60
30 11 36 60 15 9 13 27 28 18 42 26 20 26 26 8 7 9 14 11 9 23 40 15 4 2 7 12 7 9 15 14 13 5 7 9 5 1 12 4 25 23 43 58 59
39 15 44 34 15 15 18 28 26 29 25 10 12 11 24 11 8 16 15 13 27 9 31 17 7 6 6 10 1 8 6 15 16 8 11 10 6 9 12 7 4 24 23 52 53
18 10 18 14 48 24 31 19 26 48 14 8 10 11 7 4 14 4 6 6 18 19 15 10 3 4 11 3 4 9 10 18 15 10 13 9 19 20 25 28 10 11 16 46 61
16 7 11 14 23 31 38 13 34 21 13 21 11 33 21 5 7 4 3 4 10 23 8 7 9 6 8 18 6 11 10 17 12 16 12 23 27 30 23 17 15 31 55 50 52
16 11 16 23 36 34 20 17 36 39 9 17 23 34 19 11 9 6 9 5 3 10 7 5 5 10 5 8 12 19 12 18 20 16 13 37 21 14 28 39 47 52 41 50 50
35 33 19 20 15 21 18 28 35 43 20 24 29 17 11 12 28 27 16 20 1 3 10 13 6 8 11 9 6 9 6 17 18 8 38 24 21 34 25 26 41 35 44 48 54
Wind_Direction_850mb
334 331 329 326 323 320 317 315 314 311 309 308 308 306 303 301 297 286 272 277 271 253 238 230 226 206 208 234 209 207 201 221 219 204 249 291 292 278 299 306 314 297 153 165 144
335 333 330 329 328 326 324 321 318 314 310 308 307 307 308 308 305 289 297 280 252 236 234 222 215 193 189 212 216 197 215 225 204 213 266 271 271 288 326 315 307 33 135 154 157
338 335 332 330 328 327 324 321 318 315 312 308 306 306 307 317 316 295 122 348 273 216 216 216 214 200 218 222 194 228 239 228 266 238 259 265 272 286 277 279 282 336 154 159 165
334 332 331 329 327 325 322 319 315 312 309 306 302 302 311 310 285 184 191 292 318 209 200 195 203 195 198 207 226 237 254 245 264 267 266 248 265 266 249 270 303 327 274 200 176
333 332 330 328 328 325 323 321 320 316 312 308 302 301 301 261 257 267 263 256 278 205 200 196 202 199 185 208 236 236 241 254 257 258 253 262 263 268 262 278 292 309 241 203 183
333 331 330 329 327 324 320 316 312 308 305 303 298 289 269 252 287 301 244 235 245 229 206 205 213 207 204 221 187 235 235 246 252 256 254 252 263 266 264 259 283 300 198 184 190
332 330 329 326 323 321 318 313 308 304 302 295 289 275 256 245 271 270 262 242 228 236 219 214 215 189 219 295 240 243 257 261 247 249 245 256 263 247 265 261 255 202 183 185 184
331 329 327 325 324 321 317 311 305 304 299 289 279 262 255 277 286 268 251 241 225 217 232 244 221 222 239 248 302 205 187 248 265 224 253 201 247 252 260 248 257 243 193 201 191
333 331 329 326 325 322 317 311 307 304 290 274 254 238 271 278 262 291 262 237 232 227 227 233 216 213 235 221 270 221 240 221 275 198 226 183 252 254 258 271 268 274 260 191 206
333 330 327 325 324 322 319 314 313 295 275 202 226 238 259 245 244 316 306 240 207 210 212 220 222 221 228 177 217 213 196 215 205 273 200 253 255 258 243 246 251 253 244 234 183
334 331 329 326 323 321 320 320 321 296 191 214 216 220 262 279 237 283 285 213 188 190 200 202 206 216 219 222 235 225 220 233 232 242 197 253 251 240 241 236 243 245 247 232 231
335 333 332 330 322 321 312 289 310 321 295 266 256 255 257 255 266 258 229 173 189 199 197 210 223 209 223 216 218 218 232 245 265 273 158 253 251 228 222 228 228 234 244 247 229
335 334 336 334 328 320 306 297 315 337 279 283 257 251 253 228 241 246 235 216 202 198 205 206 223 203 211 213 214 225 222 232 239 285 276 251 252 228 245 228 238 239 237 238 240
334 334 335 334 328 306 310 323 319 319 274 282 254 265 218 198 253 242 227 213 215 202 206 222 220 189 206 217 207 227 215 227 244 233 236 158 246 272 228 236 184 248 244 239 238
334 333 336 330 311 300 322 326 343 83 266 270 245 186 167 162 288 6 208 204 213 178 199 205 193 212 208 211 209 230 216 223 234 210 205 208 89 267 44 332 174 161 148 223 239
334 334 336 334 329 356 0 352 355 179 242 272 332 41 352 241 280 8 177 200 214 211 208 220 195 198 224 220 219 226 221 231 242 179 230 229 138 274 249 207 175 275 153 166 191
334 337 336 346 338 340 343 335 250 221 267 256 272 357 334 329 305 84 226 189 197 201 212 208 222 232 202 219 225 220 188 250 240 212 207 196 65 230 323 310 203 147 75 91 103
336 338 17 360 3 353 276 196 230 245 237 293 327 330 322 358 38 100 252 175 274 250 187 204 214 215 220 214 200 215 192 165 169 182 160 138 191 316 9 29 49 69 89 99 96
340 344 7 2 339 315 289 224 239 273 344 328 325 331 331 349 343 171 206 206 188 230 192 210 229 204 212 230 204 216 198 199 129 49 126 147 95 51 25 30 46 60 72 82 96
346 350 10 352 342 358 249 263 288 285 290 299 291 280 283 314 307 238 288 163 186 212 194 287 219 236 241 217 227 214 168 162 8 133 161 145 121 123 13 47 37 46 84 94 97
355 339 2 356 349 360 344 294 289 303 337 321 280 262 268 295 290 217 248 167 233 201 188 123 30 284 87 159 200 147 166 97 109 121 157 139 113 345 237 131 98 68 99 104 104
353 324 347 353 27 327 327 326 301 306 316 289 246 249 247 186 269 254 237 250 182 198 182 182 113 212 244 269 203 217 176 143 134 177 96 116 175 289 200 142 122 108 114 113 111
328 286 347 3 2 340 314 313 308 324 319 315 329 328 307 168 232 214 271 210 153 116 154 154 169 107 6 341 12 198 168 123 114 107 174 122 191 149 139 128 157 96 129 128 122
333 327 328 350 350 333 326 324 333 327 325 287 260 290 297 253 230 230 240 148 159 144 136 164 118 185 184 95 186 170 124 143 122 115 148 154 155 179 173 163 169 85 83 114 117
1 324 318 321 332 327 325 308 332 346 325 12 330 350 329 325 352 39 91 101 167 120 68 101 152 218 48 19 9 352 131 143 128 153 137 164 158 174 168 139 133 117 118 107 103
340 324 307 305 313 325 325 338 335 343 299 349 344 335 8 36 342 327 13 269 99 133 115 91 274 137 122 26 31 63 52 132 116 106 82 115 106 120 123 113 98 101 108 99 97
338 323 292 307 329 334 336 328 330 336 313 336 337 333 328 348 313 294 288 285 358 121 151 139 228 117 127 148 79 96 322 97 86 45 143 138 139 133 128 123 113 98 92 92 102